Regional Weather Roundup
Issued by NWS Cleveland, OH

Home | Current Version | Previous Version | Graphics & Text | Print | Product List | Glossary On
Versions: 1 2 3 4 5 6 7 8 9 10 11 12 13 14 15 16 17 18 19 20 21 22 23 24 25 26 27 28 29 30 31 32 33 34 35 36 37 38 39 40 41 42 43 44 45 46 47 48 49 50
000
ASUS41 KCLE 281900
RWRCLE
OHIO REGIONAL WEATHER ROUNDUP
NATIONAL WEATHER SERVICE WILMINGTON, OH
300 PM EDT THU APR 28 2016

NOTE: "FAIR" INDICATES FEW OR NO CLOUDS BELOW 12,000 FEET WITH NO
SIGNIFICANT WEATHER AND/OR OBSTRUCTIONS TO VISIBILITY.

OHZ001>008-015>018-024>027-034-035-043-044-282000-
   NORTHWEST OHIO

CITY           SKY/WX    TMP DP  RH WIND       PRES   REMARKS
DEFIANCE       CLOUDY    53  42  66 E13       29.92R
FINDLAY        CLOUDY    50  43  77 NE16      29.89F
TOLEDO EXPRESS CLOUDY    48  38  68 E15G25    29.92F
TOLEDO EXEC    CLOUDY    48  38  68 E14G23    29.94F
LIMA           CLOUDY    50  47  89 NE12      29.89R
$$

OHZ009>014-019>023-028>033-038-089-282000-
   NORTHEAST OHIO

CITY           SKY/WX    TMP DP  RH WIND       PRES   REMARKS
CLE-HOPKINS    CLOUDY    48  45  89 NE9       29.94R
CLE-LAKEFRONT  LGT RAIN  47  44  90 N10       29.92R
CUY CO. ARPT   LGT RAIN  48  45  87 E12       29.91F FOG
LORAIN-ELYRIA  LGT RAIN  46  42  86 E8        29.92S
ASHTABULA      LGT RAIN  50  40  68 E13       29.95S
AKRON-CANTON   CLOUDY    48  44  86 NE10      29.91R
WOOSTER        NOT AVBL
MANSFIELD      CLOUDY    48  46  93 E7        29.90R
YOUNGSTOWN     LGT RAIN  45  43  93 NE6       29.92R FOG
$$

OHZ042-051>053-060>062-070>072-077>081-282000-
  SOUTHWEST OHIO

CITY           SKY/WX    TMP DP  RH WIND       PRES   REMARKS
CINC-COVINGTON FAIR      75  61  61 W12       29.83F
CINC-LUNKEN    FAIR      74  64  71 SW13      29.83R
HAMILTON       FAIR      74  64  71 VRB7      29.83F
DAYTON         NOT AVBL
WRIGHT-PAT AFB NOT AVBL
DAYTON GENERAL CLOUDY    66  60  81 CALM      29.84R HAZE
WILMINGTON     FAIR      73  63  70 W15       29.83R
$$

OHZ036-037-039>041-045>050-054>059-063>069-073>076-082>088-282000-
  CENTRAL AND SOUTHEAST OHIO

CITY           SKY/WX    TMP DP  RH WIND       PRES   REMARKS
COLUMBUS       CLOUDY    64  55  72 NW5       29.85S
OSU AIRPORT    CLOUDY    63  52  67 CALM      29.86R
BOLTON FIELD   NOT AVBL
RICKENBACK AFB NOT AVBL
NEWARK         CLOUDY    64  53  67 CALM      29.86R
MARION         CLOUDY    51  47  86 NE7       29.90R
LANCASTER      CLOUDY    68  60  75 VRB3      29.85S
ZANESVILLE     CLOUDY    66  55  67 NE6       29.86S
NEW PHILLY     CLOUDY    52  48  86 N5        29.89S
$$




USA.gov is the U.S. government's official web portal to all federal, state and local government web resources and services.